Bad Axe, MI

7:42 PM EST on December 04, 2016 (GMT -0500)
Huron County Memorial

Weather History for KBAX - April, 2014

Change the Weather History Date:

Friday, April 4, 2014

  Actual Average (KP58) Record (KP58)
Temperature  
Mean Temperature 38 °F -  
Max Temperature 43 °F 41 °F 57 °F (2011)
Min Temperature 32 °F 30 °F 23 °F (2007)
Degree Days  
Heating Degree Days 28    
Moisture  
Dew Point 33 °F    
Average Humidity 88    
Maximum Humidity 99    
Minimum Humidity 70    
Precipitation  
Precipitation 0.00 in - - ()
Sea Level Pressure  
Sea Level Pressure 29.57 in    
Wind  
Wind Speed 10 mph (SSE)    
Max Wind Speed 26 mph    
Max Gust Speed 39 mph    
Visibility 7 miles    
Events Fog , Rain , Snow    
Averages and records for this station are not official NWS values.
T = Trace of Precipitation, MM = Missing Value Source: NWS Daily Summary

Daily Weather History Graph

Daily Weather History Graph

Search for Another Location

Airport or City:

Trip Planner

Search our weather history database for the weather conditions in past years. The results will help you decide how hot, cold, wet, or windy it might be!

Date:

Astronomy

Apr. 04, 2014 Rise Set
Actual Time 7:08 AM EDT 8:02 PM EDT
Civil Twilight 6:38 AM EDT 8:31 PM EDT
Nautical Twilight 6:04 AM EDT 9:06 PM EDT
Astronomical Twilight 5:27 AM EDT 9:43 PM EDT
Moon 10:17 AM EDT (4/4) 12:26 AM EDT (4/4)
Length of Visible Light 13h 52m
Length of Day
12h 54m
Waxing Crescent, 25% of the Moon is Illuminated
Apr 4
Waxing Crescent
Apr 7
First Quarter
Apr 15
Full
Apr 22
Last Quarter
Apr 29
New

Hourly Weather History & Observations

Time (EDT) Temp. Windchill Dew Point Humidity Pressure Visibility Wind Dir Wind Speed Gust Speed Precip Events Conditions
12:16 AM 34.9 °F 29.0 °F 27.5 °F 74% 29.90 in 10.0 mi East 6.9 mph - N/A   Overcast
12:36 AM 34.9 °F 29.9 °F 27.3 °F 74% 29.88 in 10.0 mi East 5.8 mph 16.1 mph N/A   Overcast
12:56 AM 34.7 °F 28.1 °F 27.1 °F 74% 29.86 in 10.0 mi East 8.1 mph - N/A   Overcast
1:16 AM 34.9 °F 29.9 °F 26.8 °F 72% 29.86 in 10.0 mi East 5.8 mph - N/A   Overcast
1:36 AM 34.7 °F 26.9 °F 26.6 °F 72% 29.84 in 10.0 mi East 10.4 mph - N/A   Overcast
1:56 AM 34.3 °F 27.7 °F 26.6 °F 73% 29.82 in 10.0 mi East 8.1 mph - N/A   Overcast
2:16 AM 34.2 °F 27.5 °F 27.0 °F 75% 29.81 in 10.0 mi East 8.1 mph - N/A   Overcast
2:36 AM 34.2 °F 29.0 °F 26.6 °F 74% 29.82 in 10.0 mi ESE 5.8 mph - N/A   Overcast
2:56 AM 34.3 °F 27.0 °F 26.6 °F 73% 29.81 in 10.0 mi East 9.2 mph - N/A   Overcast
3:16 AM 34.3 °F 27.0 °F 26.4 °F 73% 29.76 in 10.0 mi East 9.2 mph 17.3 mph N/A   Overcast
3:36 AM 34.7 °F 26.9 °F 25.7 °F 70% 29.75 in 10.0 mi East 10.4 mph - N/A   Overcast
3:56 AM 34.7 °F 28.8 °F 25.9 °F 70% 29.76 in 10.0 mi East 6.9 mph - N/A   Overcast
4:17 AM 34.7 °F 27.5 °F 26.1 °F 71% 29.74 in 10.0 mi East 9.2 mph - N/A   Overcast
4:36 AM 34.3 °F 30.2 °F 26.2 °F 72% 29.76 in 10.0 mi ESE 4.6 mph - N/A   Overcast
4:56 AM 34.0 °F 28.8 °F 27.0 °F 75% 29.75 in 10.0 mi ESE 5.8 mph - N/A   Overcast
5:17 AM 34.2 °F 28.2 °F 27.5 °F 77% 29.73 in 10.0 mi ESE 6.9 mph - N/A   Overcast
5:36 AM 34.3 °F 29.2 °F 28.0 °F 78% 29.73 in 10.0 mi SE 5.8 mph - N/A   Overcast
5:56 AM 34.2 °F 29.0 °F 29.5 °F 83% 29.72 in 10.0 mi SE 5.8 mph - N/A   Overcast
6:16 AM 33.4 °F 26.6 °F 30.7 °F 90% 29.71 in 3.0 mi SE 8.1 mph - N/A   Overcast
6:36 AM 32.9 °F 27.5 °F 31.1 °F 93% 29.68 in 2.5 mi ESE 5.8 mph - N/A   Overcast
6:56 AM 32.9 °F 26.7 °F 31.6 °F 95% 29.65 in 4.0 mi ESE 6.9 mph - N/A   Overcast
7:16 AM 32.9 °F 25.3 °F 31.6 °F 95% 29.65 in 7.0 mi ESE 9.2 mph - N/A   Overcast
7:36 AM 33.1 °F 26.9 °F 32.0 °F 96% 29.63 in 5.0 mi ESE 6.9 mph - N/A   Overcast
7:57 AM 33.8 °F 27.0 °F 32.0 °F 93% 29.63 in 5.0 mi SE 8.1 mph - N/A   Overcast
8:16 AM 33.8 °F 27.0 °F 32.0 °F 93% 29.63 in 4.0 mi SE 8.1 mph - N/A   Overcast
8:36 AM 33.8 °F 26.4 °F 32.0 °F 93% 29.62 in 2.0 mi SE 9.2 mph 17.3 mph N/A   Overcast
8:57 AM 33.8 °F 27.0 °F 32.2 °F 94% 29.61 in 1.5 mi SE 8.1 mph - N/A   Overcast
9:16 AM 34.0 °F 27.2 °F 32.7 °F 95% 29.59 in 1.0 mi SE 8.1 mph - N/A   Overcast
9:36 AM 34.0 °F 28.8 °F 32.9 °F 96% 29.57 in 0.8 mi ESE 5.8 mph - N/A   Overcast
9:57 AM 34.3 °F 27.0 °F 33.4 °F 97% 29.55 in 0.8 mi SE 9.2 mph - N/A   Overcast
10:16 AM 34.7 °F 28.1 °F 33.8 °F 97% 29.55 in 0.8 mi SE 8.1 mph - N/A   Overcast
10:36 AM 35.1 °F 27.9 °F 34.3 °F 97% 29.54 in 0.8 mi SE 9.2 mph - N/A   Overcast
10:57 AM 35.2 °F 28.1 °F 34.7 °F 98% 29.50 in 0.8 mi ESE 9.2 mph 16.1 mph N/A   Overcast
11:16 AM 35.6 °F 28.0 °F 34.7 °F 97% 29.48 in 0.5 mi SE 10.4 mph 18.4 mph N/A Fog Fog
11:36 AM 36.0 °F 29.0 °F 35.6 °F 99% 29.47 in 0.8 mi SE 9.2 mph - N/A   Overcast
11:57 AM 36.5 °F 29.7 °F 36.0 °F 98% 29.47 in 0.5 mi SE 9.2 mph 16.1 mph N/A Fog Fog
12:16 PM 37.0 °F 29.3 °F 36.5 °F 98% 29.46 in 0.5 mi SE 11.5 mph - N/A Fog Fog
12:36 PM 37.6 °F 31.6 °F 37.4 °F 99% 29.45 in 0.5 mi SE 8.1 mph 17.3 mph N/A Fog Fog
12:57 PM 38.1 °F 31.2 °F 37.6 °F 98% 29.42 in 1.0 mi SSE 10.4 mph 16.1 mph N/A Snow Light Snow
1:16 PM 38.3 °F 31.9 °F 37.9 °F 99% 29.40 in 1.8 mi SE 9.2 mph - N/A   Unknown
1:36 PM 38.7 °F 34.3 °F 38.3 °F 99% 29.38 in 2.0 mi SSE 5.8 mph - N/A Rain Light Rain
1:56 PM 39.4 °F 33.8 °F 39.0 °F 99% 29.37 in 1.8 mi SSE 8.1 mph - N/A Rain Light Rain
2:16 PM 39.6 °F 32.5 °F 39.2 °F 99% 29.38 in 3.0 mi South 11.5 mph - N/A Rain Light Rain
2:56 PM 40.5 °F 35.1 °F 40.1 °F 99% 29.39 in 4.0 mi West 8.1 mph - N/A Rain Light Rain
3:16 PM 40.3 °F 33.9 °F 40.1 °F 99% 29.41 in 7.0 mi West 10.4 mph - N/A Rain Light Rain
3:37 PM 39.7 °F 32.3 °F 39.2 °F 98% 29.38 in 5.0 mi NW 12.7 mph 18.4 mph N/A Rain Light Rain
3:56 PM 39.2 °F 35.0 °F 38.7 °F 98% 29.42 in 2.5 mi West 5.8 mph - N/A   Unknown
4:16 PM 39.2 °F 35.0 °F 38.5 °F 97% 29.42 in 5.0 mi West 5.8 mph - N/A   Unknown
4:37 PM 40.1 °F 36.1 °F 39.6 °F 98% 29.40 in 10.0 mi SW 5.8 mph - N/A   Overcast
4:56 PM 41.2 °F 35.5 °F 40.6 °F 98% 29.40 in 10.0 mi WSW 9.2 mph - N/A   Overcast
5:16 PM 41.0 °F 36.4 °F 40.1 °F 97% 29.41 in 10.0 mi WSW 6.9 mph - N/A   Overcast
5:37 PM 42.1 °F 36.6 °F 41.0 °F 96% 29.42 in 10.0 mi WSW 9.2 mph - N/A   Overcast
5:56 PM 42.4 °F 37.0 °F 41.0 °F 95% 29.42 in 10.0 mi WSW 9.2 mph - N/A   Overcast
6:16 PM 43.2 °F 38.4 °F 41.5 °F 94% 29.41 in 10.0 mi WSW 8.1 mph - N/A   Overcast
6:37 PM 43.5 °F 34.0 °F 40.6 °F 90% 29.43 in 4.0 mi WSW 25.3 mph 38.0 mph N/A   Overcast
6:56 PM 41.5 °F 32.9 °F 38.7 °F 89% 29.44 in 4.0 mi WSW 18.4 mph 35.7 mph N/A   Overcast
7:16 PM 40.5 °F 30.4 °F 37.6 °F 89% 29.45 in 7.0 mi WSW 23.0 mph 35.7 mph N/A   Overcast
7:37 PM 39.6 °F 28.7 °F 35.6 °F 86% 29.46 in 10.0 mi WSW 25.3 mph 34.5 mph N/A   Overcast
7:56 PM 38.7 °F 28.8 °F 34.2 °F 84% 29.47 in 10.0 mi WSW 19.6 mph 38.0 mph N/A   Overcast
8:16 PM 38.1 °F 26.8 °F 33.3 °F 83% 29.48 in 10.0 mi WSW 25.3 mph 33.4 mph N/A   Overcast
8:37 PM 37.4 °F 26.9 °F 32.5 °F 83% 29.49 in 10.0 mi WSW 20.7 mph 32.2 mph N/A   Overcast
8:56 PM 37.2 °F 25.9 °F 32.2 °F 82% 29.50 in 10.0 mi WSW 24.2 mph 33.4 mph N/A   Overcast
9:17 PM 36.9 °F 25.6 °F 32.2 °F 83% 29.51 in 10.0 mi WSW 23.0 mph 32.2 mph N/A   Overcast
9:37 PM 36.1 °F 25.0 °F 32.0 °F 85% 29.51 in 10.0 mi WSW 21.9 mph 31.1 mph N/A   Overcast
9:56 PM 35.8 °F 24.8 °F 31.8 °F 86% 29.52 in 10.0 mi WSW 20.7 mph 33.4 mph N/A   Overcast
10:17 PM 35.4 °F 23.0 °F 32.0 °F 87% 29.53 in 10.0 mi WSW 26.5 mph 32.2 mph N/A   Overcast
10:37 PM 35.1 °F 23.8 °F 31.6 °F 87% 29.53 in 10.0 mi West 20.7 mph 31.1 mph N/A   Overcast
10:56 PM 34.7 °F 23.4 °F 31.5 °F 88% 29.53 in 10.0 mi WSW 20.7 mph 28.8 mph N/A   Overcast
11:17 PM 34.7 °F 23.1 °F 30.7 °F 85% 29.55 in 10.0 mi West 21.9 mph 29.9 mph N/A   Overcast
11:37 PM 34.3 °F 22.6 °F 29.8 °F 84% 29.56 in 10.0 mi West 21.9 mph 39.1 mph N/A Snow Light Snow
11:56 PM 33.8 °F 21.6 °F 29.8 °F 85% 29.58 in 10.0 mi West 23.0 mph 36.8 mph N/A Snow Light Snow